Group_ship,Cruise,JD_GMT,Date_DDMMYYYY,TIME_HH:MM:SS,Lat_dec_degree,Long_dec_degree,xCO2eq_ppm,xCO2a_ppm,Pres_Equi_hPa,Pres_sealevel_hPa,EqTemp_C,SST(TSG)_C,Sal(TSG)_Permil,Water_flow_l/min,Gasflow_IR_ml/min,Temp_IR_C,Pres_IR_hPa,Ship_heading_true_degree,Ship_speed_knot,Wind_dir_rel_degree,Wind_speed_rel_m/s,fCO2W@SST_uatm,Qcflag_water,fCO2a_uatm,Qcflag_air,dfCO2_uatm,Fluoro_ug/l,Wind_speed_true_m/s,Wind_dir_true_degree,Air_temp_C,Oxygen
AOML_Explorer,Ex0705W,29.024,29012007,0:34:25,25.477,-79.998,356.96,-9.00,1015.88,1013.40,24.49,24.61,36.268,2.267,81.051,32.201,1015.878,181.800,20.600,77.000,13.382,347.77,2,-9.00,9,-9.00,0.06,15.24,302.61,20.48,237.28
AOML_Explorer,Ex0705W,29.026,29012007,0:36:58,25.462,-79.998,356.75,-9.00,1015.89,1013.10,24.48,24.61,36.272,2.209,81.430,32.206,1015.885,181.100,20.700,81.000,14.926,347.76,2,-9.00,9,-9.00,0.06,17.04,301.03,20.35,237.14
AOML_Explorer,Ex0705W,29.027,29012007,0:39:31,25.448,-79.999,356.58,-9.00,1016.02,1013.10,24.48,24.64,36.272,2.227,81.499,32.214,1016.016,181.100,20.700,82.000,13.897,348.03,2,-9.00,9,-9.00,0.06,16.40,303.90,20.48,236.94
AOML_Explorer,Ex0705W,29.029,29012007,0:42:04,25.433,-80.000,356.72,-9.00,1016.44,1012.60,24.50,24.64,36.283,2.220,80.928,32.220,1016.442,181.600,20.700,79.000,12.868,348.12,2,-9.00,9,-9.00,0.06,15.20,305.13,20.38,236.77
AOML_Explorer,Ex0705W,29.031,29012007,0:44:37,25.418,-80.000,356.90,-9.00,1016.43,1013.50,24.51,24.63,36.280,2.240,81.706,32.227,1016.430,181.800,20.700,69.000,13.382,347.93,2,-9.00,9,-9.00,0.06,13.98,297.64,20.32,236.90
AOML_Explorer,Ex0705W,29.033,29012007,0:47:10,25.404,-80.001,356.91,-9.00,1016.40,1012.90,24.50,24.63,36.279,2.250,81.592,32.231,1016.398,181.300,20.800,79.000,13.897,348.00,2,-9.00,9,-9.00,0.06,16.04,302.65,20.36,237.17
AOML_Explorer,Ex0705W,29.035,29012007,0:49:43,25.389,-80.001,356.65,-9.00,1016.48,1013.80,24.50,24.62,36.290,2.219,81.681,32.240,1016.481,181.700,20.700,84.000,12.353,347.79,2,-9.00,9,-9.00,0.06,15.56,309.45,20.24,236.92
AOML_Explorer,Ex0705W,29.036,29012007,0:52:16,25.374,-80.002,356.84,-9.00,1016.66,1013.10,24.49,24.61,36.282,2.228,81.475,32.245,1016.660,182.000,20.600,81.000,12.868,347.99,2,-9.00,9,-9.00,0.07,15.48,306.64,20.21,236.83
AOML_Explorer,Ex0705W,29.038,29012007,0:54:49,25.360,-80.002,356.45,-9.00,1016.44,1012.90,24.49,24.63,36.271,2.251,81.724,32.252,1016.436,181.400,20.700,86.000,9.779,347.74,2,-9.00,9,-9.00,0.06,14.09,317.40,20.17,236.71
AOML_Explorer,Ex0705W,29.040,29012007,0:57:22,25.345,-80.003,356.09,-9.00,1016.45,1013.70,24.50,24.64,36.285,2.239,81.763,32.259,1016.453,181.900,20.600,78.000,13.382,347.59,2,-9.00,9,-9.00,0.06,15.36,303.29,20.15,236.64
AOML_Explorer,Ex0705W,29.042,29012007,0:59:55,25.330,-80.003,356.59,-9.00,1016.53,1013.60,24.51,24.65,36.288,2.221,81.873,32.262,1016.535,181.700,20.700,82.000,11.838,347.87,2,-9.00,9,-9.00,0.06,14.93,309.69,20.04,236.57
AOML_Explorer,Ex0705W,29.057,29012007,1:21:40,25.206,-80.008,356.78,-9.00,1017.11,1013.60,24.53,24.68,36.273,2.245,80.915,32.321,1017.110,181.300,20.700,87.000,8.235,348.57,2,-9.00,9,-9.00,0.06,13.24,322.97,19.65,236.05
AOML_Explorer,Ex0705W,29.058,29012007,1:24:13,25.191,-80.008,356.60,-9.00,1016.98,1013.50,24.54,24.72,36.269,2.246,81.863,32.322,1016.983,181.100,20.800,96.000,8.750,348.69,2,-9.00,9,-9.00,0.07,14.65,324.86,19.58,236.10
AOML_Explorer,Ex0705W,29.060,29012007,1:26:46,25.176,-80.009,356.70,-9.00,1016.96,1013.60,24.57,24.72,36.271,2.225,81.644,32.322,1016.956,180.800,20.800,81.000,11.838,348.34,2,-9.00,9,-9.00,0.07,14.86,308.75,19.5,236.21
AOML_Explorer,Ex0705W,29.062,29012007,1:29:19,25.162,-80.009,356.97,-9.00,1017.44,1013.50,24.58,24.73,36.264,2.203,81.652,32.320,1017.443,181.900,20.800,82.000,8.750,348.72,2,-9.00,9,-9.00,0.07,13.03,320.06,19.48,236.32
AOML_Explorer,Ex0705W,29.064,29012007,1:31:52,25.147,-80.010,356.79,-9.00,1017.42,1013.90,24.58,24.72,36.265,2.247,81.956,32.323,1017.421,180.500,20.800,85.000,8.235,348.45,2,-9.00,9,-9.00,0.07,13.09,321.70,19.7,236.47
AOML_Explorer,Ex0705W,29.066,29012007,1:34:25,25.133,-80.010,356.72,-9.00,1017.46,1013.50,24.59,24.74,36.264,2.218,81.736,32.322,1017.461,180.700,20.800,89.000,11.323,348.46,2,-9.00,9,-9.00,0.06,15.65,314.37,19.44,236.25
AOML_Explorer,Ex0705W,29.067,29012007,1:36:58,25.118,-80.011,356.70,-9.00,1017.42,1013.70,24.60,24.74,36.264,2.208,81.937,32.322,1017.424,180.800,20.900,86.000,7.721,348.45,2,-9.00,9,-9.00,0.06,12.98,324.35,19.53,236.37
AOML_Explorer,Ex0705W,29.069,29012007,1:39:31,25.103,-80.011,356.53,-9.00,1017.36,1013.80,24.61,24.76,36.263,2.229,82.036,32.325,1017.362,181.000,20.800,98.000,11.323,348.35,2,-9.00,9,-9.00,0.07,16.82,319.41,19.45,236.22
AOML_Explorer,Ex0705W,29.071,29012007,1:42:04,25.089,-80.012,356.74,-9.00,1017.43,1013.70,24.62,24.76,36.262,2.209,82.183,32.328,1017.429,180.800,20.900,90.000,8.750,348.48,2,-9.00,9,-9.00,0.07,14.06,322.35,19.41,235.94
AOML_Explorer,Ex0705W,29.073,29012007,1:44:37,25.074,-80.012,357.06,-9.00,1017.48,1013.90,24.62,24.76,36.263,2.208,81.963,32.327,1017.479,180.300,20.800,89.000,8.235,348.75,2,-9.00,9,-9.00,0.07,13.59,323.00,19.42,235.73
AOML_Explorer,Ex0705W,29.074,29012007,1:47:10,25.059,-80.012,357.65,-9.00,1017.78,1014.10,24.62,24.77,36.256,2.215,81.826,32.327,1017.779,180.400,20.700,92.000,8.235,349.51,2,-9.00,9,-9.00,0.07,13.91,324.21,19.49,235.78
AOML_Explorer,Ex0705W,29.076,29012007,1:49:43,25.045,-80.013,357.65,-9.00,1017.62,1014.10,24.63,24.79,36.253,2.218,82.233,32.326,1017.621,185.400,20.700,94.000,9.265,349.65,2,-9.00,9,-9.00,0.07,14.98,327.45,19.46,235.75
AOML_Explorer,Ex0705W,29.078,29012007,1:52:16,25.030,-80.016,357.48,-9.00,1017.48,1013.90,24.64,24.78,36.252,2.231,81.625,32.325,1017.477,194.300,20.300,89.000,11.323,349.09,2,-9.00,9,-9.00,0.06,15.69,328.13,19.5,236.02
AOML_Explorer,Ex0705W,29.080,29012007,1:54:49,25.017,-80.021,357.14,-9.00,1017.42,1013.40,24.64,24.74,36.259,2.218,81.785,32.323,1017.423,202.500,20.200,80.000,13.897,348.19,2,-9.00,9,-9.00,0.07,16.28,324.64,19.43,236.11
AOML_Explorer,Ex0705W,29.082,29012007,1:57:22,25.004,-80.028,356.80,-9.00,1017.79,1014.20,24.63,24.73,36.248,2.236,81.947,32.318,1017.791,210.200,20.100,78.000,16.470,348.02,2,-9.00,9,-9.00,0.06,18.00,325.59,19.38,235.96
AOML_Explorer,Ex0705W,29.083,29012007,1:59:55,24.992,-80.037,355.99,-9.00,1017.47,1014.90,24.60,24.68,36.259,2.235,82.024,32.318,1017.471,214.400,20.000,70.000,17.500,346.91,2,-9.00,9,-9.00,0.06,17.56,321.81,19.3,235.93
AOML_Explorer,Ex0705W,29.098,29012007,2:21:40,24.894,-80.117,355.07,-9.00,1017.74,1014.10,24.52,24.64,36.260,2.234,81.249,32.307,1017.736,215.800,20.000,74.000,20.073,346.70,2,-9.00,9,-9.00,0.07,20.37,322.15,18.9,236.00
AOML_Explorer,Ex0705W,29.100,29012007,2:24:13,24.883,-80.127,355.12,-9.00,1017.63,1015.50,24.51,24.64,36.260,2.262,81.507,32.300,1017.627,221.900,20.000,84.000,18.529,346.76,2,-9.00,9,-9.00,0.07,20.80,338.92,18.93,236.10
AOML_Explorer,Ex0705W,29.102,29012007,2:26:46,24.873,-80.138,355.07,-9.00,1017.55,1015.40,24.51,24.64,36.256,2.201,81.782,32.294,1017.553,229.800,19.800,72.000,25.220,346.79,2,-9.00,9,-9.00,0.06,24.69,328.54,18.92,236.01
AOML_Explorer,Ex0705W,29.104,29012007,2:29:19,24.864,-80.150,354.97,-9.00,1017.44,1015.70,24.51,24.64,36.260,2.228,81.550,32.288,1017.436,231.300,19.800,65.000,26.250,346.61,2,-9.00,9,-9.00,0.06,24.34,322.21,18.92,235.91
AOML_Explorer,Ex0705W,29.105,29012007,2:31:52,24.855,-80.162,354.99,-9.00,1017.49,1014.00,24.50,24.63,36.264,2.212,81.827,32.284,1017.487,230.200,20.000,75.000,23.162,346.58,2,-9.00,9,-9.00,0.06,23.38,334.18,18.86,235.89
AOML_Explorer,Ex0705W,29.107,29012007,2:34:25,24.846,-80.174,355.05,-9.00,1017.47,1015.50,24.50,24.63,36.262,2.235,81.990,32.279,1017.471,231.200,19.900,68.000,23.676,346.66,2,-9.00,9,-9.00,0.06,22.69,328.40,18.72,235.76
AOML_Explorer,Ex0705W,29.109,29012007,2:36:58,24.838,-80.186,354.99,-9.00,1017.37,1015.60,24.49,24.62,36.264,2.215,81.965,32.277,1017.370,234.000,19.900,68.000,24.706,346.61,2,-9.00,9,-9.00,0.06,23.54,329.70,18.89,235.80
AOML_Explorer,Ex0705W,29.111,29012007,2:39:31,24.830,-80.199,354.93,-9.00,1017.34,1015.60,24.49,24.62,36.266,2.201,81.956,32.274,1017.341,233.500,19.900,72.000,21.617,346.50,2,-9.00,9,-9.00,0.06,21.51,336.57,18.88,235.68
AOML_Explorer,Ex0705W,29.113,29012007,2:42:04,24.822,-80.212,354.99,-9.00,1017.42,1015.80,24.49,24.62,36.261,2.244,82.016,32.272,1017.416,238.400,19.800,67.000,25.220,346.63,2,-9.00,9,-9.00,0.06,23.97,333.28,18.82,235.71
AOML_Explorer,Ex0705W,29.114,29012007,2:44:37,24.815,-80.225,355.08,-9.00,1017.63,1016.50,24.49,24.63,36.263,2.216,82.228,32.270,1017.631,240.000,19.800,68.000,22.132,346.95,2,-9.00,9,-9.00,0.07,21.13,338.07,18.83,235.58
AOML_Explorer,Ex0705W,29.116,29012007,2:47:10,24.808,-80.238,354.93,-9.00,1017.62,1016.50,24.49,24.63,36.261,2.225,81.883,32.268,1017.617,239.800,19.800,61.000,22.647,346.77,2,-9.00,9,-9.00,0.06,20.36,330.56,18.82,235.65
AOML_Explorer,Ex0705W,29.118,29012007,2:49:43,24.801,-80.252,354.81,-9.00,1017.57,1016.60,24.49,24.64,36.262,2.197,81.919,32.266,1017.570,239.700,19.800,66.000,24.191,346.68,2,-9.00,9,-9.00,0.06,22.62,333.48,18.78,235.64
AOML_Explorer,Ex0705W,29.120,29012007,2:52:16,24.793,-80.265,354.94,-9.00,1017.99,1016.60,24.50,24.65,36.262,2.210,81.986,32.264,1017.991,239.700,19.900,65.000,23.676,347.04,2,-9.00,9,-9.00,0.06,22.02,333.40,18.64,235.58
AOML_Explorer,Ex0705W,29.121,29012007,2:54:49,24.786,-80.279,354.96,-9.00,1018.16,1016.40,24.50,24.65,36.263,2.245,82.070,32.258,1018.156,239.600,19.900,58.000,22.132,347.04,2,-9.00,9,-9.00,0.07,19.36,328.13,18.63,235.40
AOML_Explorer,Ex0705W,29.123,29012007,2:57:22,24.778,-80.292,355.16,-9.00,1018.15,1016.40,24.51,24.65,36.260,2.206,81.858,32.260,1018.145,231.600,20.200,69.000,19.044,347.14,2,-9.00,9,-9.00,0.06,18.54,334.96,18.64,235.49
AOML_Explorer,Ex0705W,29.125,29012007,2:59:55,24.769,-80.303,355.42,-9.00,1018.33,1015.30,24.50,24.65,36.260,2.226,82.393,32.258,1018.334,226.800,20.400,86.000,18.529,347.50,2,-9.00,9,-9.00,0.07,21.14,345.58,18.69,235.47
AOML_Explorer,Ex0705W,29.140,29012007,3:21:40,24.686,-80.405,354.52,-9.00,1018.85,1017.00,24.48,24.58,36.247,2.208,81.425,32.236,1018.851,231.600,20.400,63.000,19.044,346.32,2,-9.00,9,-9.00,0.07,17.68,330.90,18.31,235.60
AOML_Explorer,Ex0705W,29.142,29012007,3:24:13,24.677,-80.417,354.29,-9.00,1018.48,1016.30,24.46,24.58,36.242,2.235,81.820,32.226,1018.482,231.700,20.400,72.000,19.559,346.14,2,-9.00,9,-9.00,0.06,19.76,338.24,18.41,235.60
AOML_Explorer,Ex0705W,29.144,29012007,3:26:46,24.668,-80.429,354.09,-9.00,1018.63,1016.80,24.44,24.58,36.252,2.234,82.134,32.215,1018.633,231.900,20.200,63.000,19.559,346.28,2,-9.00,9,-9.00,0.07,17.98,329.39,18.4,235.41
AOML_Explorer,Ex0705W,29.145,29012007,3:29:19,24.659,-80.442,353.90,-9.00,1018.68,1016.40,24.44,24.59,36.252,2.224,81.738,32.208,1018.675,231.900,20.400,73.000,18.529,346.35,2,-9.00,9,-9.00,0.06,18.93,340.17,18.26,235.79
AOML_Explorer,Ex0705W,29.147,29012007,3:31:52,24.650,-80.455,353.86,-9.00,1018.71,1016.30,24.45,24.61,36.259,2.218,81.827,32.199,1018.714,232.700,20.400,79.000,16.470,346.40,2,-9.00,9,-9.00,0.06,18.18,349.06,18.35,235.53
AOML_Explorer,Ex0705W,29.149,29012007,3:34:25,24.642,-80.467,353.68,-9.00,1018.56,1016.80,24.46,24.61,36.264,2.212,82.162,32.194,1018.563,232.500,20.600,74.000,15.441,346.04,2,-9.00,9,-9.00,0.07,16.54,347.38,18.26,235.54
AOML_Explorer,Ex0705W,29.151,29012007,3:36:58,24.633,-80.480,353.82,-9.00,1018.65,1016.30,24.47,24.61,36.264,2.186,82.188,32.188,1018.653,232.600,20.800,65.000,16.470,346.10,2,-9.00,9,-9.00,0.06,15.81,338.60,18.25,235.69
AOML_Explorer,Ex0705W,29.152,29012007,3:39:31,24.624,-80.493,354.02,-9.00,1018.63,1017.10,24.47,24.62,36.255,2.210,82.059,32.183,1018.625,232.400,20.600,64.000,18.015,346.42,2,-9.00,9,-9.00,0.06,16.84,333.95,18.27,235.77
AOML_Explorer,Ex0705W,29.154,29012007,3:42:04,24.615,-80.506,353.96,-9.00,1019.00,1017.00,24.47,24.63,36.252,2.229,82.293,32.181,1018.999,232.800,20.600,57.000,19.044,346.56,2,-9.00,9,-9.00,0.06,16.41,325.92,18.22,236.06
AOML_Explorer,Ex0705W,29.156,29012007,3:44:37,24.606,-80.519,353.80,-9.00,1018.77,1017.10,24.48,24.62,36.246,2.233,81.884,32.177,1018.770,232.300,20.600,75.000,17.500,346.07,2,-9.00,9,-9.00,0.06,18.38,343.97,18.29,236.19
AOML_Explorer,Ex0705W,29.158,29012007,3:47:10,24.597,-80.532,353.76,-9.00,1018.87,1016.70,24.48,24.62,36.248,2.213,81.943,32.169,1018.873,233.100,20.600,76.000,14.412,346.01,2,-9.00,9,-9.00,0.06,15.97,351.26,18.09,236.02
AOML_Explorer,Ex0705W,29.160,29012007,3:49:43,24.588,-80.544,353.65,-9.00,1019.09,1017.10,24.47,24.64,36.267,2.194,82.174,32.166,1019.091,233.100,20.500,62.000,15.441,346.41,2,-9.00,9,-9.00,0.06,14.37,338.19,18.15,236.08
AOML_Explorer,Ex0705W,29.161,29012007,3:52:16,24.580,-80.557,353.86,-9.00,1019.11,1016.90,24.48,24.64,36.275,2.198,81.807,32.162,1019.108,232.800,20.500,65.000,14.926,346.51,2,-9.00,9,-9.00,0.06,14.59,342.12,18.09,236.11
AOML_Explorer,Ex0705W,29.163,29012007,3:54:49,24.571,-80.570,354.37,-9.00,1019.14,1016.90,24.49,24.62,36.270,2.225,82.007,32.161,1019.145,232.400,20.500,71.000,14.412,346.61,2,-9.00,9,-9.00,0.06,15.21,347.35,18.22,236.15
AOML_Explorer,Ex0705W,29.165,29012007,3:57:22,24.562,-80.583,354.28,-9.00,1019.21,1016.80,24.48,24.60,36.271,2.219,82.092,32.156,1019.207,232.800,20.500,67.000,15.441,346.41,2,-9.00,9,-9.00,0.06,15.27,342.03,18.09,235.85
AOML_Explorer,Ex0705W,29.167,29012007,3:59:55,24.553,-80.595,354.00,-9.00,1019.16,1016.90,24.47,24.59,36.270,2.210,82.224,32.151,1019.159,232.800,20.500,70.000,15.441,346.13,2,-9.00,9,-9.00,0.07,15.80,344.47,18.17,235.90
AOML_Explorer,Ex0705W,29.182,29012007,4:21:40,24.488,-80.710,356.92,-9.00,1019.18,1017.10,24.76,25.08,36.218,2.198,81.420,32.113,1019.181,240.400,20.200,54.000,14.412,351.69,2,-9.00,9,-9.00,0.07,12.00,340.73,18.26,238.55
AOML_Explorer,Ex0705W,29.183,29012007,4:24:13,24.481,-80.724,358.32,-9.00,1019.30,1017.40,24.86,25.08,36.222,2.175,81.818,32.103,1019.301,241.000,20.300,53.000,14.412,351.62,2,-9.00,9,-9.00,0.06,11.82,340.58,18.33,235.78
AOML_Explorer,Ex0705W,29.185,29012007,4:26:46,24.474,-80.737,359.26,-9.00,1019.41,1017.30,24.89,25.04,36.233,2.189,81.443,32.091,1019.408,240.800,20.300,64.000,14.926,351.51,2,-9.00,9,-9.00,0.08,14.18,347.97,18.29,233.36
AOML_Explorer,Ex0705W,29.187,29012007,4:29:19,24.467,-80.751,360.16,-9.00,1019.60,1017.30,24.88,25.18,36.165,2.220,82.033,32.084,1019.602,240.900,20.000,54.000,10.809,354.61,2,-9.00,9,-9.00,0.06,9.68,355.47,18.37,232.66
AOML_Explorer,Ex0705W,29.189,29012007,4:31:52,24.460,-80.765,360.33,-9.00,1019.58,1017.30,24.89,25.38,36.148,2.187,81.839,32.076,1019.580,241.000,20.000,57.000,13.897,357.51,2,-9.00,9,-9.00,0.06,12.16,345.05,18.31,232.03
AOML_Explorer,Ex0705W,29.191,29012007,4:34:25,24.453,-80.779,359.64,-9.00,1019.36,1017.40,25.06,25.52,36.143,2.179,82.128,32.073,1019.356,241.500,20.000,52.000,12.868,356.21,2,-9.00,9,-9.00,0.08,10.52,345.14,18.46,231.39
AOML_Explorer,Ex0705W,29.192,29012007,4:36:58,24.446,-80.792,360.80,-9.00,1019.36,1017.50,25.23,25.52,36.131,2.182,82.026,32.067,1019.363,240.700,20.000,60.000,15.441,354.76,2,-9.00,9,-9.00,0.07,13.79,342.45,18.53,231.44
AOML_Explorer,Ex0705W,29.194,29012007,4:39:31,24.439,-80.806,362.26,-9.00,1019.32,1017.10,25.30,25.46,36.122,2.200,82.353,32.065,1019.318,241.400,20.100,61.000,12.868,354.39,2,-9.00,9,-9.00,0.06,12.10,351.93,18.51,231.57
AOML_Explorer,Ex0705W,29.196,29012007,4:42:04,24.433,-80.820,362.32,-9.00,1019.19,1017.20,25.28,25.40,36.125,2.207,82.564,32.060,1019.188,243.300,20.300,57.000,14.926,353.75,2,-9.00,9,-9.00,0.07,13.00,345.07,18.51,231.85
AOML_Explorer,Ex0705W,29.198,29012007,4:44:37,24.427,-80.835,361.74,-9.00,1019.15,1017.10,25.22,25.39,36.124,2.227,81.718,32.054,1019.145,245.900,20.200,50.000,13.897,353.82,2,-9.00,9,-9.00,0.07,10.82,344.07,18.56,232.08
AOML_Explorer,Ex0705W,29.199,29012007,4:47:10,24.421,-80.849,361.07,-9.00,1019.15,1016.90,25.18,25.42,36.112,2.230,82.325,32.048,1019.153,245.700,20.100,67.000,13.382,354.42,2,-9.00,9,-9.00,0.06,13.39,358.59,18.61,232.49
AOML_Explorer,Ex0705W,29.201,29012007,4:49:43,24.415,-80.863,360.54,-9.00,1019.22,1017.10,25.20,25.42,36.111,2.207,82.304,32.043,1019.221,245.900,20.100,51.000,12.353,353.40,2,-9.00,9,-9.00,0.06,9.90,350.83,18.55,232.17
AOML_Explorer,Ex0705W,29.203,29012007,4:52:16,24.409,-80.878,360.00,-9.00,1019.16,1017.40,25.21,25.38,36.121,2.196,82.142,32.042,1019.161,246.600,20.200,47.000,14.412,352.16,2,-9.00,9,-9.00,0.06,10.47,339.23,18.68,232.36
AOML_Explorer,Ex0705W,29.205,29012007,4:54:49,24.404,-80.892,359.81,-9.00,1018.89,1017.10,25.19,25.30,36.138,2.232,82.209,32.037,1018.887,247.000,20.200,66.000,13.897,351.14,2,-9.00,9,-9.00,0.07,13.44,357.02,18.7,232.34
AOML_Explorer,Ex0705W,29.207,29012007,4:57:22,24.398,-80.907,359.49,-9.00,1019.09,1017.50,25.15,25.25,36.151,2.174,82.293,32.032,1019.086,247.200,20.300,54.000,12.868,350.72,2,-9.00,9,-9.00,0.08,10.60,351.82,18.85,232.24
AOML_Explorer,Ex0705W,29.208,29012007,4:59:55,24.392,-80.922,359.39,-9.00,1019.00,1017.70,25.10,25.13,36.169,2.196,82.896,32.027,1018.998,245.400,20.500,57.000,13.897,349.68,2,-9.00,9,-9.00,0.08,12.14,350.23,19,232.27
AOML_Explorer,Ex0705W,29.223,29012007,5:21:40,24.338,-81.040,360.04,-9.00,1018.29,1016.70,24.81,25.04,36.199,2.222,81.734,32.006,1018.291,239.500,19.600,62.000,17.500,353.04,2,-9.00,9,-9.00,0.07,15.99,338.61,19.49,232.44
AOML_Explorer,Ex0705W,29.225,29012007,5:24:13,24.331,-81.053,360.29,-9.00,1018.43,1016.90,24.83,25.06,36.194,2.197,81.792,31.997,1018.426,239.400,19.700,60.000,14.926,353.34,2,-9.00,9,-9.00,0.07,13.61,343.09,19.5,232.59
AOML_Explorer,Ex0705W,29.227,29012007,5:26:46,24.324,-81.067,360.23,-9.00,1018.39,1017.20,24.87,25.10,36.182,2.219,82.088,31.991,1018.390,239.500,19.700,51.000,18.529,353.19,2,-9.00,9,-9.00,0.07,14.91,326.05,19.61,232.59
AOML_Explorer,Ex0705W,29.229,29012007,5:29:19,24.317,-81.080,360.13,-9.00,1018.51,1017.00,24.90,25.14,36.168,2.187,82.032,31.975,1018.511,240.300,19.700,51.000,15.441,353.31,2,-9.00,9,-9.00,0.07,12.31,333.95,19.68,232.67
AOML_Explorer,Ex0705W,29.230,29012007,5:31:52,24.310,-81.093,360.13,-9.00,1018.58,1016.80,24.93,25.20,36.165,2.213,82.118,31.966,1018.579,239.700,19.600,39.000,13.897,353.76,2,-9.00,9,-9.00,0.07,9.08,326.93,19.74,232.39
AOML_Explorer,Ex0705W,29.232,29012007,5:34:25,24.303,-81.106,360.00,-9.00,1018.31,1016.90,24.97,25.34,36.120,2.220,82.394,31.953,1018.313,239.300,19.600,51.000,18.015,354.98,2,-9.00,9,-9.00,0.07,14.48,326.86,19.76,232.42
AOML_Explorer,Ex0705W,29.234,29012007,5:36:58,24.296,-81.120,359.80,-9.00,1018.32,1017.10,25.07,25.48,36.095,2.234,82.321,31.943,1018.321,239.700,19.700,43.000,16.985,355.25,2,-9.00,9,-9.00,0.06,12.23,321.30,19.79,232.35
AOML_Explorer,Ex0705W,29.236,29012007,5:39:31,24.289,-81.133,359.39,-9.00,1018.44,1017.00,25.20,25.57,36.090,2.211,82.386,31.934,1018.436,239.700,19.600,41.000,14.412,354.23,2,-9.00,9,-9.00,0.07,9.90,327.33,19.87,232.36
AOML_Explorer,Ex0705W,29.238,29012007,5:42:04,24.282,-81.146,359.73,-9.00,1018.28,1016.80,25.30,25.66,36.083,2.220,82.603,31.923,1018.277,239.600,19.600,56.000,15.441,354.30,2,-9.00,9,-9.00,0.06,13.29,338.17,20.02,232.21
AOML_Explorer,Ex0705W,29.239,29012007,5:44:37,24.275,-81.159,360.11,-9.00,1018.25,1016.90,25.39,25.70,36.086,2.239,82.790,31.919,1018.246,240.300,19.700,53.000,16.470,353.78,2,-9.00,9,-9.00,0.08,13.61,333.78,20.02,231.97
AOML_Explorer,Ex0705W,29.241,29012007,5:47:10,24.268,-81.173,360.68,-9.00,1018.20,1016.90,25.46,25.80,36.075,2.227,82.748,31.910,1018.197,239.800,19.700,49.000,16.470,354.88,2,-9.00,9,-9.00,0.06,12.85,329.08,20.24,231.72
AOML_Explorer,Ex0705W,29.243,29012007,5:49:43,24.261,-81.186,361.24,-9.00,1018.20,1016.70,25.51,25.87,36.084,2.222,82.721,31.901,1018.198,239.500,20.000,50.000,16.470,355.63,2,-9.00,9,-9.00,0.07,13.07,330.67,20.27,231.28
AOML_Explorer,Ex0705W,29.245,29012007,5:52:16,24.253,-81.199,362.38,-9.00,1018.22,1016.40,25.60,25.91,36.093,2.233,82.451,31.896,1018.224,239.900,20.000,61.000,14.926,355.93,2,-9.00,9,-9.00,0.07,13.84,344.99,20.15,230.74
AOML_Explorer,Ex0705W,29.246,29012007,5:54:49,24.246,-81.213,363.79,-9.00,1018.26,1016.30,25.65,25.92,36.097,2.221,82.625,31.889,1018.260,239.100,20.100,66.000,14.412,356.82,2,-9.00,9,-9.00,0.08,14.27,349.52,19.9,230.57
AOML_Explorer,Ex0705W,29.248,29012007,5:57:22,24.239,-81.226,364.58,-9.00,1018.11,1016.60,25.68,25.92,36.097,2.218,82.828,31.881,1018.109,239.700,20.100,58.000,15.956,357.11,2,-9.00,9,-9.00,0.08,14.11,339.86,20.14,230.58
AOML_Explorer,Ex0705W,29.250,29012007,5:59:55,24.232,-81.240,365.13,-9.00,1018.17,1016.40,25.68,25.92,36.098,2.237,82.419,31.873,1018.169,239.500,20.100,53.000,15.441,357.49,2,-9.00,9,-9.00,0.07,12.83,336.66,20.09,230.52
AOML_Explorer,Ex0705W,29.265,29012007,6:21:40,24.170,-81.353,363.64,-9.00,1017.88,1016.40,25.68,26.07,36.060,2.191,81.229,31.871,1017.884,241.300,19.700,52.000,15.441,358.26,2,-9.00,9,-9.00,0.07,12.75,337.28,20.48,230.99
AOML_Explorer,Ex0705W,29.267,29012007,6:24:13,24.163,-81.366,364.41,-9.00,1017.88,1016.20,25.77,26.17,36.057,2.225,81.349,31.868,1017.879,240.600,19.700,49.000,16.470,358.98,2,-9.00,9,-9.00,0.07,13.07,331.01,20.49,230.69
AOML_Explorer,Ex0705W,29.269,29012007,6:26:46,24.156,-81.380,365.45,-9.00,1017.81,1016.30,25.86,26.17,36.065,2.229,80.891,31.862,1017.806,241.400,19.700,48.000,14.926,358.68,2,-9.00,9,-9.00,0.07,11.76,335.80,20.45,230.23
AOML_Explorer,Ex0705W,29.270,29012007,6:29:19,24.150,-81.393,366.65,-9.00,1017.85,1016.40,25.92,26.11,36.053,2.197,81.096,31.856,1017.849,241.100,19.600,47.000,14.926,358.09,2,-9.00,9,-9.00,0.07,11.50,333.85,20.46,230.52
AOML_Explorer,Ex0705W,29.272,29012007,6:31:52,24.143,-81.406,367.18,-9.00,1017.76,1016.70,25.88,26.09,36.048,2.222,81.807,31.845,1017.765,241.800,19.600,40.000,16.470,358.85,2,-9.00,9,-9.00,0.07,11.43,322.09,20.49,230.70
AOML_Explorer,Ex0705W,29.274,29012007,6:34:25,24.137,-81.420,366.92,-9.00,1017.74,1016.50,25.85,26.13,36.037,2.232,81.453,31.839,1017.739,241.900,19.600,43.000,15.956,359.58,2,-9.00,9,-9.00,0.08,11.57,327.14,20.47,230.38
AOML_Explorer,Ex0705W,29.276,29012007,6:36:58,24.130,-81.433,366.94,-9.00,1017.66,1015.90,25.87,26.17,36.031,2.226,81.670,31.832,1017.665,241.800,19.700,51.000,16.470,359.91,2,-9.00,9,-9.00,0.07,13.41,334.17,20.41,230.44
AOML_Explorer,Ex0705W,29.277,29012007,6:39:31,24.123,-81.447,366.95,-9.00,1017.61,1016.20,25.90,26.17,36.037,2.202,81.606,31.825,1017.613,241.900,19.600,51.000,17.500,359.51,2,-9.00,9,-9.00,0.07,14.21,331.38,20.32,230.45
AOML_Explorer,Ex0705W,29.279,29012007,6:42:04,24.117,-81.460,367.31,-9.00,1017.48,1015.50,25.92,26.16,36.037,2.231,81.890,31.817,1017.482,241.500,19.700,65.000,16.470,359.24,2,-9.00,9,-9.00,0.07,15.92,346.76,20.27,230.46
AOML_Explorer,Ex0705W,29.281,29012007,6:44:37,24.110,-81.473,367.35,-9.00,1017.61,1016.00,25.92,26.16,36.039,2.253,81.731,31.809,1017.609,244.500,19.600,57.000,14.926,359.35,2,-9.00,9,-9.00,0.07,13.34,346.61,20.33,230.57
AOML_Explorer,Ex0705W,29.283,29012007,6:47:10,24.105,-81.487,366.96,-9.00,1017.38,1016.00,25.92,26.18,36.024,2.234,81.403,31.803,1017.377,245.300,19.500,47.000,16.470,359.19,2,-9.00,9,-9.00,0.07,12.62,332.77,20.34,230.88
AOML_Explorer,Ex0705W,29.285,29012007,6:49:43,24.099,-81.501,367.13,-9.00,1017.61,1016.30,25.91,26.17,36.033,2.241,81.726,31.799,1017.605,247.400,19.600,38.000,16.985,359.38,2,-9.00,9,-9.00,0.06,11.47,323.63,20.38,230.84
AOML_Explorer,Ex0705W,29.286,29012007,6:52:16,24.094,-81.515,366.83,-9.00,1017.44,1016.10,25.93,26.15,36.032,2.225,81.415,31.796,1017.436,247.000,19.700,51.000,16.470,358.60,2,-9.00,9,-9.00,0.07,13.36,339.15,20.44,231.00
AOML_Explorer,Ex0705W,29.288,29012007,6:54:49,24.088,-81.529,366.98,-9.00,1017.54,1016.20,25.92,26.17,36.021,2.231,81.827,31.790,1017.542,246.400,19.600,46.000,16.985,359.09,2,-9.00,9,-9.00,0.07,12.91,332.23,20.46,230.88
AOML_Explorer,Ex0705W,29.290,29012007,6:57:22,24.083,-81.543,366.76,-9.00,1017.50,1016.10,25.91,26.24,36.018,2.216,81.474,31.787,1017.501,246.400,19.600,52.000,18.529,360.18,2,-9.00,9,-9.00,0.07,15.25,334.72,20.48,230.64